カタログに戻る

SL-14 DEB

運用中PO
NORAD 69735·DEBRIS·🇨🇳 China

打ち上げ Jan 17, 1986 から Plesetsk Cosmodrome

Loading…

次のパス (今後24時間)

TLE

最新Source: Space-Track

元期: Sep 14, 2026, 11:47 UTC

1 69735U 86006D   26257.49127467  .00009737  00000-0  87246-3 0  9998
2 69735  82.5419  85.5084 0088710  25.0996 335.4495 14.92655265 68884

AllMySatでSL-14 DEBをリアルタイム追跡

Download on the App Store